#timestamp,LO_Frequency,Hit 
1504519215.4,286046993.9,N
1504519235.2,286046992.2,P
1504519255.1,286046994.4,N
1504519256.0,286046994.4,N
1504519275.8,286046994.5,N
1504519295.6,286046994.6,N
1504519315.5,286046995.7,N
1504519335.3,286046995.2,N
1504519355.1,286046998.0,N
1504519375.9,286046994.9,N
1504519395.7,286046993.8,P
1504519415.5,286046998.5,N
1504519435.4,286046999.9,N
1504519455.2,286046996.5,N
1504519475.0,286046997.4,N
1504519475.9,286046997.4,N
1504519495.8,286046997.1,N
1504519515.6,286046997.9,N
1504519535.4,286046996.6,N
1504519555.3,286046999.6,N
1504519575.1,286046997.3,N
1504519576.0,286046997.3,N
1504519595.8,286046999.0,N
1504519615.7,286046999.0,N
1504519635.5,286046999.6,N
1504519655.3,286046995.0,P
1504519675.2,286046996.9,N
1504519695.9,286046999.4,N
1504519715.7,286046998.2,N
1504519735.6,286046998.7,N
1504519755.4,286046995.8,N
1504519775.2,286046991.8,P
1504519795.1,286046997.6,N
1504519796.0,286046997.6,N
1504519815.8,286046996.3,N
1504519835.6,286046994.1,N
1504519855.5,286046994.7,N
1504519875.3,286046994.8,N
1504519895.1,286046992.0,P
1504519915.9,286046996.8,N
1504519935.7,286047000.6,N
1504519955.5,286047000.2,N
1504519975.4,286047000.1,N
1504519995.2,286047000.4,N
1504520015.0,286046997.8,N
1504520015.9,286046997.8,N
1504520035.7,286046996.1,N
1504520055.6,286046994.0,N
1504520075.4,286046994.5,N
1504520095.2,286046992.2,N
1504520115.1,286046992.0,N
1504520116.0,286046992.0,N
1504520135.8,286046994.1,N
1504520155.6,286046992.4,N
1504520175.5,286046991.0,N
1504520195.3,286046988.8,P
1504520215.1,286046993.6,N
1504520235.9,286046994.7,N
1504520255.7,286046994.4,N
1504520275.5,286046992.2,P
1504520295.4,286047002.2,P
1504520315.2,286047002.2,N
1504520335.0,286047003.2,N
1504520335.9,286047003.2,N
1504520355.8,286047003.0,N
1504520375.6,286047002.1,N
1504520395.4,286047002.8,N
1504520415.3,286047001.2,N
1504520435.1,286047001.0,N
1504520436.0,286047001.0,N
1504520455.8,286047000.5,N
1504520475.7,286047002.1,N
1504520495.5,286047002.6,N
1504520515.3,286047000.4,N
1504520535.1,286046997.4,N
1504520555.9,286046997.8,N
1504520575.7,286046999.0,N
1504520595.5,286046996.7,N
1504520615.4,286046997.2,N
1504520635.2,286046997.7,N
1504520655.0,286046996.3,N
1504520655.9,286046996.3,N
1504520675.8,286046996.3,N
1504520695.6,286046993.4,N
1504520715.4,286046997.5,N
1504520735.3,286046993.3,N
1504520755.1,286046992.1,N
1504520756.0,286046992.1,N
1504520775.8,286046994.1,N
1504520795.7,286046994.8,N
1504520815.5,286046992.2,N
1504520835.3,286046995.0,N
1504520855.1,286046991.8,N
1504520875.9,286046993.4,N
1504520895.7,286046996.2,N
1504520915.5,286046994.6,N
1504520935.4,286046992.1,N
1504520955.2,286046990.2,P
1504520975.0,286046991.7,N
1504520976.0,286046991.7,P
1504520995.8,286046993.5,N
1504521015.6,286046994.6,N
1504521035.5,286046991.4,P
1504521055.3,286046999.6,N
1504521075.1,286046997.4,N
1504521095.9,286046997.7,N
1504521115.7,286046997.2,N
1504521135.5,286046997.7,N
1504521155.3,286046997.1,N
1504521175.2,286046995.1,N
1504521195.9,286046995.3,N
1504521215.7,286046993.3,N
1504521235.6,286046993.6,N
1504521255.4,286046991.7,P
1504521275.2,286046999.6,N
1504521295.1,286046997.4,N
1504521296.0,286046997.4,N
1504521315.8,286046995.1,N
1504521335.6,286046995.6,N
1504521355.5,286046996.4,N
1504521375.3,286046995.7,N
1504521395.1,286046993.3,P
1504521415.9,286046998.7,N
1504521435.7,286046997.2,N
1504521455.5,286046995.4,N
1504521475.4,286046995.4,N
1504521495.2,286046994.9,P
1504521515.0,286046998.2,P
1504521515.9,286046998.2,N
1504521535.8,286047000.7,N
1504521555.6,286046998.7,N
1504521575.4,286047000.9,N
1504521595.3,286047002.7,N
1504521615.1,286047001.1,N
1504521616.0,286047001.1,N
1504521635.8,286046998.3,N
1504521655.7,286047000.0,N
1504521675.5,286046998.4,N
1504521695.3,286046996.5,N
1504521715.2,286046996.8,N
1504521735.9,286046996.7,N
1504521755.7,286046997.1,N
1504521775.5,286046997.9,N
1504521795.4,286046995.6,N
1504521815.2,286046996.4,N
1504521835.0,286046993.7,P
1504521836.0,286046993.7,N
1504521855.8,286046996.1,N
1504521875.6,286046996.0,N
1504521895.4,286046996.1,N
1504521915.3,286046996.0,N
1504521935.1,286046994.6,P
1504521955.8,286046999.6,N
1504521975.7,286046996.6,N
1504521995.5,286046996.5,N
1504522015.4,286046994.9,P
1504522035.2,286047000.9,N
1504522055.0,286047000.8,N
1504522055.9,286047000.8,N
1504522075.7,286046998.6,N
1504522095.6,286046999.2,N
1504522115.4,286046998.6,N
1504522135.2,286046999.4,N
1504522155.1,286046995.4,N
1504522156.0,286046995.4,N
1504522175.8,286046993.7,N
1504522195.6,286046996.1,N
1504522215.5,286046994.0,N
1504522235.3,286046994.4,N
1504522255.1,286046994.6,N
1504522275.9,286046991.8,P
1504522295.7,286046995.3,N
1504522315.5,286046997.7,N
1504522335.4,286046997.2,N
1504522355.2,286046998.0,N
1504522375.0,286046997.9,N
1504522375.9,286046997.9,N
1504522395.8,286046996.4,N
1504522415.6,286046992.2,P
1504522435.4,286046995.6,N
1504522455.3,286046995.6,N
1504522475.1,286046993.7,P
1504522495.8,286046999.4,N
1504522515.7,286046998.4,N
1504522535.5,286046998.4,N
1504522555.3,286046998.8,N
1504522575.2,286046998.7,N
1504522595.9,286046998.9,N
1504522615.7,286046995.1,N
1504522635.5,286046996.1,N
1504522655.4,286046995.4,N
1504522675.2,286046996.1,N
1504522695.0,286046995.6,N
1504522695.9,286046995.6,N
1504522715.8,286046996.2,N
1504522735.6,286046995.4,N
1504522755.4,286046995.9,N
1504522775.3,286046996.4,N
1504522795.1,286046994.1,P
